{"data":{"norad_id":61222,"epoch":"2026-09-22T17:00:16.382880Z","epoch_age_seconds":103788,"freshness":"FRESH","line1":"1 61222U 24172C   26265.70852295  .00001076  00000+0  17775-3 0  9991","line2":"2 61222  98.0402 354.5476 0001447 119.7890 240.3461 14.72391923107709","mean_motion":14.72391923,"eccentricity":0.0001447,"inclination_deg":98.0402,"raan_deg":354.5476,"arg_perigee_deg":119.789,"mean_anomaly_deg":240.3461,"bstar":0.00017775,"rev_number":10770,"period_min":97.800047494556,"perigee_km":652.42501538221,"apogee_km":654.45995448516,"semimajor_km":7031.5794849337,"source":"CELESTRAK","updated_at":"2026-09-23T09:00:20.854525Z"}}